CYGFM08

Last updated on Wed Sep 23 2026 00:03:10 GMT+0000 (Coordinated Universal Time)

1 41888U 16078E 26265.49304563 .00025815 00000+0 25099-3 0 9994 2 41888 34.9429 311.0359 0004813 37.7806 322.3258 15.65248671544206
UTC large
Height (km)
Speed (km/s)
/
Latitude / Longitude
Inclination (degrees)
Orbital Period (minutes)
Azimuth
Elevation
Range (km)
Doppler Factor

Next 0 passes for location: London (51.5072 / 0.1276)

No passes found over London.
CYGFM08